Showing default

AETHER-1, 58281

Orbit data source: Space-Track

AETHER-1, 58281 is a payload satellite owned by Kepler Comms (CA) in SSO that was launched on Sat, 11 Nov 2023 UTC via an FALCON 9 launch vehicle from the Air Force Western Test Range (AFWTR). Payload-class satellites include a variety of spacecraft equipped with specific instruments for various scientific and technological missions. These include communications satellites like Starlink; space stations such as the ISS; scientific satellites like the Hubble; Earth observation satellites from companies like Planet Labs, Umbra, and HawkEye 360; GPS; miniature CubeSats for education and research; and military/defense satellites.

Loading next visibility...
Identifier
58281, 2023-174AB
Orbit
SSO
Country
Flag of CACA
Related business
Manufacturer
KEPLER/UTIAS
Mission
Operational Commercial Communications
Bus & Motor
CUBESAT 6U, Unknown motor
Mass
15 kg wet, 15 kg dry
Launch date (UTC)
2023-11-11 (2 years ago)
Launch vehicle
FALCON 9
Launch site
Air Force Western Test Range (AFWTR)
Object type
Payload
Rocket body
Debris
Shape & HBR
Box + 2 Pan, 0.3 m
Radar Cross Section
0.109 m², Medium (>0.1 m² and < 1m²)

Expand to show TLE details & history
Last TLE update: 12 hours ago

TLE from 12 hours ago
0 AETHER-1
1 58281U 23174AB  25289.03789485  .00043366  00000-0  10424-2 0  9996
2 58281  97.4083   9.2497 0006061 313.6237  46.4506 15.41180751107956
Epoch: 2025-10-16T00:54Z
TLE epoch observation values (Epoch: 2025-10-16T00:54:34.115Z)
Latitude
-0.00002°
Longitude
-29.19581°
Altitude
442.895 km
Speed
7.648 km/s
True Right ascension
00h 36m 59s
True Declination
0° 00' 00"
Sunlit
Object was in full shadow at epoch
Visualization orbit readout
Latitude
Unknown
Longitude
Unknown
Altitude
Unknown
Speed
Unknown
Apparent Right ascension
Unknown
Apparent Declination
Unknown
Sunlit
N/A
Visualization observer readout
Local Sidereal Time
07:39:16
Azimuth
Unknown
Elevation
Unknown
Doppler factor
Unknown
Orbital elements
Apogee altitude
443.693 km
Perigee altitude
435.429 km
Semi-major axis
6,817.698 km
Eccentricity
0.00061
Inclination
97.4083°
RAAN
9.2497°
Arg. of periapsis
313.6237°
True anomaly
46.50097°
Mean anomaly
46.4506°
Eccentric anomaly
46.47578°
Mean motion
3.85555 °/min
Orbital period
93.37 mins
BSTAR
0.0010424
Loading maneuver chart data...
Computing Atmospheric mass density...

Documentation

Showing up to 5 results
|